Location: Plainartige
(45.6866°N, 1.7993°E)
Time: 20:24:23
(UTC+00:00)

RS-15 - Pass Details

Date: 06 July 2022
Orbit: 1881 x 2163 km, 64.8° (Epoch: 19 August)

Event Time Altitude Azimuth Distance (km) Brightness Sun altitude
Rises 01:08:38 0° 319° (NW) 5,694 10.9 -19.7°
Reaches altitude 10° 01:13:24 10° 305° (NW) 4,669 10.2 -19.5°
Maximum altitude 01:21:14 20° 264° (W) 3,820 9.3 -19.0°
Enters shadow 01:26:09 16° 235° (SW) 4,118 9.2 -18.7°
